GW5711 Weather Reports


time (UTC)temp
F
wind
direction
speed
knots
gust
knots
rain 1hr
in
rain 24hr
in
rain mn
in
humidity
%
barometer
mb
20260510063912 50 170 0.0 0.0 0.00 0.00 0.00 79 1013.7
20260510063408 50 165 0.0 0.0 0.00 0.00 0.00 79 1013.8
20260510062907 50 160 0.0 0.0 0.00 0.00 0.00 79 1013.7
20260510062401 50 152 0.0 0.0 0.00 0.00 0.00 79 1013.7
20260510061857 50 169 0.0 0.0 0.00 0.00 0.00 79 1013.5
20260510061354 50 162 0.0 0.0 0.00 0.00 0.00 78 1013.7
20260510060849 51 115 0.0 0.0 0.00 0.00 0.00 78 1013.7
20260510060348 51 170 0.0 0.0 0.00 0.00 0.00 77 1013.5
20260510055844 52 208 0.0 0.0 0.00 0.00 0.00 75 1013.7
20260510055343 53 211 0.9 0.9 0.00 0.00 0.00 75 1013.7
20260510054842 53 208 0.0 0.0 0.00 0.00 0.00 74 1013.8
20260510054338 53 223 0.0 0.0 0.00 0.00 0.00 73 1013.5
20260510053833 53 219 0.9 0.9 0.00 0.00 0.00 74 1013.7
20260510053328 53 211 0.0 0.0 0.00 0.00 0.00 74 1013.8
20260510052825 52 215 0.0 0.0 0.00 0.00 0.00 74 1013.7
20260510052321 52 210 0.0 0.0 0.00 0.00 0.00 75 1013.5
20260510051818 52 210 0.0 0.0 0.00 0.00 0.00 75 1013.5
20260510051315 51 210 0.0 0.0 0.00 0.00 0.00 76 1013.7
20260510050812 52 210 0.0 0.0 0.00 0.00 0.00 75 1013.7
20260510050308 52 210 0.0 0.0 0.00 0.00 0.00 76 1013.7
20260510045805 52 210 0.0 0.0 0.00 0.00 0.00 76 1013.7
20260510045305 52 210 0.0 0.0 0.00 0.00 0.00 75 1013.8
20260510044759 53 213 0.0 0.0 0.00 0.00 0.00 75 1014.0
20260510044256 54 209 0.0 0.0 0.00 0.00 0.00 72 1013.8
20260510043752 54 209 0.0 0.0 0.00 0.00 0.00 72 1013.8
20260510043248 55 209 0.0 0.0 0.00 0.00 0.00 72 1013.8
20260510042746 55 209 0.0 0.0 0.00 0.00 0.00 72 1013.8
20260510042241 55 209 0.0 0.0 0.00 0.00 0.00 71 1013.8
20260510041738 56 209 0.0 0.0 0.00 0.00 0.00 70 1013.9
20260510041235 56 209 0.0 0.0 0.00 0.00 0.00 69 1014.0
20260510040733 57 209 0.0 0.0 0.00 0.00 0.00 69 1013.9
20260510040230 56 209 0.0 0.0 0.00 0.00 0.00 69 1014.0
20260510035724 56 209 0.0 0.0 0.00 0.00 0.00 69 1013.9
20260510035221 56 209 0.0 0.0 0.00 0.00 0.00 70 1014.0
20260510034716 55 211 0.0 0.0 0.00 0.00 0.00 71 1013.8
20260510034215 55 210 0.0 0.0 0.00 0.00 0.00 71 1013.9
20260510033710 55 210 0.0 0.0 0.00 0.00 0.00 72 1013.9
20260510033209 55 210 0.0 0.0 0.00 0.00 0.00 72 1014.1
20260510032705 55 210 0.0 0.0 0.00 0.00 0.00 73 1013.8
20260510032200 55 210 0.0 0.0 0.00 0.00 0.00 73 1014.0
20260510031655 55 210 0.0 0.0 0.00 0.00 0.00 74 1013.7
20260510031152 56 211 0.0 0.0 0.00 0.00 0.00 72 1013.7
20260510030652 57 211 0.0 0.0 0.00 0.00 0.00 71 1013.5
20260510030150 57 211 0.0 0.0 0.00 0.00 0.00 71 1013.5
20260510025647 57 217 0.0 0.0 0.00 0.00 0.00 70 1013.4
20260510025144 57 222 0.0 0.0 0.00 0.00 0.00 71 1013.5
20260510024641 57 207 0.0 0.0 0.00 0.00 0.00 72 1013.7
20260510024137 57 208 0.0 0.0 0.00 0.00 0.00 71 1013.4
20260510023633 58 214 0.0 0.0 0.00 0.00 0.00 69 1013.3
20260510023131 60 204 0.0 0.0 0.00 0.00 0.00 67 1013.2
20260510022631 60 203 0.0 0.0 0.00 0.00 0.00 67 1013.1
20260510022126 60 205 0.0 0.9 0.00 0.00 0.00 67 1013.1
20260510021621 60 205 0.0 0.9 0.00 0.00 0.00 68 1012.8
20260510021114 60 195 0.0 0.0 0.00 0.00 0.00 68 1012.8
20260510020608 60 196 0.0 0.0 0.00 0.00 0.00 68 1012.7
20260510020104 59 194 0.0 0.0 0.00 0.00 0.00 69 1012.6
20260510015600 60 177 0.0 0.0 0.00 0.00 0.00 69 1012.5
20260510015057 61 195 0.0 0.0 0.00 0.00 0.00 67 1012.6
20260510014552 61 210 0.0 0.0 0.00 0.00 0.00 67 1012.4
20260510014049 61 204 0.9 0.9 0.00 0.00 0.00 67 1012.2
20260510013543 60 209 0.0 0.0 0.00 0.00 0.00 68 1012.3
20260510013039 60 209 0.0 0.0 0.00 0.00 0.00 69 1012.2
20260510012534 60 209 0.0 0.0 0.00 0.00 0.00 68 1012.0
20260510012031 60 209 0.0 0.0 0.00 0.00 0.00 68 1012.0
20260510011530 60 209 0.0 0.0 0.00 0.00 0.00 67 1012.0
20260510011026 61 209 0.0 0.0 0.00 0.00 0.00 66 1011.7
20260510010523 61 209 0.0 0.0 0.00 0.00 0.00 66 1011.9
20260510010020 61 209 0.0 0.0 0.00 0.00 0.00 66 1011.7
20260510005516 61 209 0.0 0.0 0.00 0.00 0.00 66 1011.6
20260510005014 61 209 0.0 0.0 0.00 0.00 0.00 65 1011.6
20260510004511 62 209 0.0 0.0 0.00 0.00 0.00 65 1011.5
20260510004009 62 209 0.0 0.0 0.00 0.00 0.00 64 1011.5
20260510003505 62 209 0.0 0.0 0.00 0.00 0.00 64 1011.3
20260510003001 63 209 0.0 0.0 0.00 0.00 0.00 63 1011.2
20260510002457 63 209 0.0 0.0 0.00 0.00 0.00 62 1011.2
20260510001953 64 209 0.0 0.0 0.00 0.00 0.00 62 1011.2
20260510001451 65 209 0.0 0.0 0.00 0.00 0.00 60 1011.1
20260510000949 66 209 0.0 0.0 0.00 0.00 0.00 59 1010.9
20260510000444 67 210 0.0 0.0 0.00 0.00 0.00 56 1010.9
20260509235941 67 210 0.9 0.9 0.00 0.00 0.00 55 1010.8
20260509235438 67 189 0.0 0.0 0.00 0.00 0.00 56 1010.7
20260509234934 68 217 1.7 2.6 0.00 0.00 0.00 55 1010.5
20260509234431 68 182 0.0 0.0 0.00 0.00 0.00 55 1010.6
20260509233929 69 198 0.0 0.0 0.00 0.00 0.00 54 1010.6
20260509233426 69 213 0.0 0.9 0.00 0.00 0.00 53 1010.6
20260509232922 69 234 0.0 1.7 0.00 0.00 0.00 53 1010.5
20260509232420 69 173 0.0 0.0 0.00 0.00 0.00 53 1010.6
20260509231915 70 180 0.0 0.0 0.00 0.00 0.00 52 1010.8
20260509231413 70 214 0.9 0.9 0.00 0.00 0.00 52 1010.7
20260509230911 70 192 0.0 0.9 0.00 0.00 0.00 52 1010.5
20260509230407 70 241 1.7 1.7 0.00 0.00 0.00 52 1010.6
20260509225903 71 183 0.0 0.9 0.00 0.00 0.00 51 1010.4
20260509225400 71 165 0.0 0.9 0.00 0.00 0.00 50 1010.5
20260509224855 71 212 0.9 1.7 0.00 0.00 0.00 50 1010.6
20260509224351 71 187 0.9 0.9 0.00 0.00 0.00 50 1010.6
20260509223849 71 186 0.0 0.0 0.00 0.00 0.00 50 1010.4
20260509223345 71 232 1.7 2.6 0.00 0.00 0.00 50 1010.7
20260509222843 71 232 1.7 1.7 0.00 0.00 0.00 49 1010.6
20260509222337 71 237 0.9 1.7 0.00 0.00 0.00 50 1010.6
20260509221833 71 208 0.9 1.7 0.00 0.00 0.00 51 1010.5
20260509221331 71 179 0.9 0.9 0.00 0.00 0.00 51 1010.6
20260509220831 71 214 0.9 0.9 0.00 0.00 0.00 51 1010.7
20260509220327 71 243 4.3 5.2 0.00 0.00 0.00 49 1010.4
20260509215822 72 224 1.7 2.6 0.00 0.00 0.00 49 1010.4
20260509215320 71 268 2.6 5.2 0.00 0.00 0.00 49 1010.5
20260509214816 71 262 2.6 4.3 0.00 0.00 0.00 50 1010.4
20260509214313 71 203 1.7 1.7 0.00 0.00 0.00 50 1010.6
20260509213810 71 265 4.3 5.2 0.00 0.00 0.00 49 1010.4
20260509213306 71 236 2.6 2.6 0.00 0.00 0.00 50 1010.5
20260509212804 71 168 0.9 1.7 0.00 0.00 0.00 50 1010.6
20260509212301 71 193 0.9 0.9 0.00 0.00 0.00 49 1010.4
20260509211756 71 206 1.7 1.7 0.00 0.00 0.00 49 1010.5
20260509211253 71 228 2.6 4.3 0.00 0.00 0.00 49 1010.2
20260509210749 72 236 3.5 4.3 0.00 0.00 0.00 48 1010.3
20260509210248 73 238 2.6 2.6 0.00 0.00 0.00 48 1010.3
20260509205746 73 237 1.7 1.7 0.00 0.00 0.00 47 1010.2
20260509205242 74 116 0.9 1.7 0.00 0.00 0.00 46 1010.3
20260509204738 73 214 1.7 1.7 0.00 0.00 0.00 45 1010.5
20260509204234 73 183 2.6 4.3 0.00 0.00 0.00 47 1010.3
20260509203730 74 310 0.9 0.9 0.00 0.00 0.00 45 1010.1
20260509203229 72 202 2.6 4.3 0.00 0.00 0.00 47 1010.1
20260509202724 72 235 2.6 2.6 0.00 0.00 0.00 47 1010.0
20260509202220 72 150 0.0 0.0 0.00 0.00 0.00 49 1010.0
20260509201714 74 14 0.9 0.9 0.00 0.00 0.00 45 1010.1
20260509201212 74 342 2.6 2.6 0.00 0.00 0.00 47 1010.0
20260509200709 74 236 2.6 2.6 0.00 0.00 0.00 44 1010.0
20260509200209 73 191 2.6 4.3 0.00 0.00 0.00 47 1010.0
20260509195705 73 229 2.6 4.3 0.00 0.00 0.00 45 1010.2
20260509195201 73 169 0.9 1.7 0.00 0.00 0.00 46 1010.1
20260509194700 73 207 3.5 5.2 0.00 0.00 0.00 46 1010.2
20260509194157 73 219 4.3 6.1 0.00 0.00 0.00 46 1010.2
20260509193654 73 192 2.6 2.6 0.00 0.00 0.00 46 1010.4
20260509193149 75 296 2.6 2.6 0.00 0.00 0.00 46 1010.4
20260509192646 73 161 0.9 0.9 0.00 0.00 0.00 46 1010.6
20260509192141 72 284 1.7 1.7 0.00 0.00 0.00 47 1010.5
20260509191635 72 331 4.3 5.2 0.00 0.00 0.00 49 1010.6
20260509191132 72 219 2.6 2.6 0.00 0.00 0.00 46 1010.8
20260509190628 73 262 1.7 4.3 0.00 0.00 0.00 45 1010.8
20260509190126 73 259 2.6 2.6 0.00 0.00 0.00 48 1010.7
20260509185623 73 254 2.6 2.6 0.00 0.00 0.00 45 1010.6
20260509185120 73 200 4.3 6.1 0.00 0.00 0.00 45 1010.8
20260509184618 73 220 4.3 6.1 0.00 0.00 0.00 44 1010.8
20260509184114 71 226 2.6 2.6 0.00 0.00 0.00 46 1010.9
20260509183610 73 231 2.6 5.2 0.00 0.00 0.00 45 1011.1
20260509183105 72 323 1.7 1.7 0.00 0.00 0.00 45 1010.9
20260509182602 71 169 0.0 0.9 0.00 0.00 0.00 46 1011.1
20260509182059 72 263 0.9 0.9 0.00 0.00 0.00 44 1011.1
20260509181557 74 251 2.6 2.6 0.00 0.00 0.00 42 1010.9
20260509181054 74 189 0.9 1.7 0.00 0.00 0.00 45 1010.9
20260509180549 72 246 3.5 5.2 0.00 0.00 0.00 46 1011.1
20260509180047 73 161 4.3 6.1 0.00 0.00 0.00 47 1011.2
20260509175542 71 271 0.9 1.7 0.00 0.00 0.00 45 1011.3
20260509175040 72 183 2.6 4.3 0.00 0.00 0.00 45 1011.4
20260509174536 72 237 3.5 5.2 0.00 0.00 0.00 49 1011.5
20260509174031 72 248 4.3 7.0 0.00 0.00 0.00 48 1011.7
20260509173526 72 218 0.9 0.9 0.00 0.00 0.00 49 1011.6
20260509173022 71 237 2.6 2.6 0.00 0.00 0.00 49 1011.7
20260509172520 70 190 0.0 0.0 0.00 0.00 0.00 49 1011.9
20260509172015 69 244 4.3 6.1 0.00 0.00 0.00 49 1012.0
20260509171512 70 218 2.6 4.3 0.00 0.00 0.00 51 1012.0
20260509171008 69 233 2.6 2.6 0.00 0.00 0.00 51 1012.1
20260509170504 70 222 2.6 4.3 0.00 0.00 0.00 51 1012.1
20260509165959 71 202 0.9 0.9 0.00 0.00 0.00 49 1012.1
20260509165458 70 323 1.7 1.7 0.00 0.00 0.00 50 1012.2
20260509164955 69 247 3.5 6.1 0.00 0.00 0.00 53 1012.0
20260509164450 70 161 0.9 0.9 0.00 0.00 0.00 53 1011.9
20260509163946 71 234 2.6 4.3 0.00 0.00 0.00 51 1012.0
20260509163444 69 158 1.7 2.6 0.00 0.00 0.00 53 1012.1
20260509162943 67 287 2.6 2.6 0.00 0.00 0.00 55 1012.4
20260509162442 68 223 1.7 1.7 0.00 0.00 0.00 52 1012.2
20260509161938 69 9 1.7 2.6 0.00 0.00 0.00 53 1012.1
20260509161434 69 177 0.0 0.9 0.00 0.00 0.00 52 1012.1
20260509160930 70 137 1.7 1.7 0.00 0.00 0.00 50 1012.1
20260509160426 68 279 3.5 4.3 0.00 0.00 0.00 51 1012.1
20260509155921 68 256 1.7 2.6 0.00 0.00 0.00 51 1012.1
20260509155418 68 261 2.6 2.6 0.00 0.00 0.00 50 1012.1
20260509154914 68 227 0.9 1.7 0.00 0.00 0.00 54 1011.9
20260509154411 68 202 2.6 4.3 0.00 0.00 0.00 54 1012.3
20260509153907 68 175 0.9 0.9 0.00 0.00 0.00 55 1012.0
20260509153405 68 172 4.3 7.8 0.00 0.00 0.00 54 1012.2
20260509152902 69 259 1.7 1.7 0.00 0.00 0.00 53 1012.2
20260509152357 68 238 2.6 4.3 0.00 0.00 0.00 54 1012.2
20260509151855 68 190 1.7 2.6 0.00 0.00 0.00 52 1012.3
20260509151350 68 268 1.7 1.7 0.00 0.00 0.00 53 1012.2
20260509150849 68 167 0.9 0.9 0.00 0.00 0.00 55 1012.2
20260509150347 69 263 1.7 1.7 0.00 0.00 0.00 53 1012.3
20260509145844 68 230 0.9 1.7 0.00 0.00 0.00 54 1012.2
20260509145344 67 172 0.9 0.9 0.00 0.00 0.00 55 1012.0
20260509144841 66 279 0.9 1.7 0.00 0.00 0.00 56 1012.0
20260509144338 66 248 3.5 5.2 0.00 0.00 0.00 56 1012.2
20260509143835 66 249 1.7 1.7 0.00 0.00 0.00 56 1012.3
20260509143332 67 253 2.6 2.6 0.00 0.00 0.00 55 1012.2
20260509142828 67 259 0.9 1.7 0.00 0.00 0.00 56 1012.1
20260509142324 66 206 2.6 2.6 0.00 0.00 0.00 57 1012.0
20260509141820 65 202 4.3 5.2 0.00 0.00 0.00 59 1011.9
20260509141318 64 164 0.9 0.9 0.00 0.00 0.00 61 1012.1
20260509140814 63 188 0.9 1.7 0.00 0.00 0.00 62 1012.3
20260509140311 63 168 0.0 0.9 0.00 0.00 0.00 62 1012.2
20260509135809 63 190 0.0 0.9 0.00 0.00 0.00 62 1012.3
20260509135306 64 239 3.5 6.1 0.00 0.00 0.00 61 1012.1
20260509134803 64 213 1.7 1.7 0.00 0.00 0.00 61 1012.5
20260509134301 64 253 1.7 1.7 0.00 0.00 0.00 61 1012.5
20260509133757 64 215 2.6 4.3 0.00 0.00 0.00 62 1012.6
20260509133254 63 222 0.9 1.7 0.00 0.00 0.00 63 1012.5
20260509132753 62 229 4.3 5.2 0.00 0.00 0.00 64 1012.6
20260509132251 61 242 1.7 1.7 0.00 0.00 0.00 64 1012.7
20260509131747 61 235 0.0 0.0 0.00 0.00 0.00 65 1012.8
20260509131244 61 193 4.3 5.2 0.00 0.00 0.00 65 1012.8
20260509130740 61 172 2.6 2.6 0.00 0.00 0.00 65 1012.9
20260509130236 61 239 1.7 4.3 0.00 0.00 0.00 65 1013.0
20260509125733 61 194 2.6 4.3 0.00 0.00 0.00 65 1012.9
20260509125230 61 193 1.7 1.7 0.00 0.00 0.00 66 1012.9
20260509124726 61 254 2.6 2.6 0.00 0.00 0.00 66 1013.0
20260509124223 60 255 0.9 0.9 0.00 0.00 0.00 67 1013.0
20260509123721 60 177 0.9 0.9 0.00 0.00 0.00 68 1013.1
20260509123218 60 159 0.0 0.9 0.00 0.00 0.00 68 1013.1
20260509122713 59 120 0.0 0.0 0.00 0.00 0.00 69 1013.1
20260509122211 59 120 0.0 0.0 0.00 0.00 0.00 71 1013.0
20260509121707 58 121 0.0 0.0 0.00 0.00 0.00 73 1013.0
20260509121205 58 121 0.0 0.0 0.00 0.00 0.00 70 1013.2
20260509120703 57 121 0.0 0.0 0.00 0.00 0.00 72 1013.0
20260509120201 56 121 0.0 0.0 0.00 0.00 0.00 73 1013.1
20260509115658 56 121 0.0 0.0 0.00 0.00 0.00 73 1013.1
20260509115155 55 121 0.0 0.0 0.00 0.00 0.00 74 1013.1
20260509114653 55 121 0.0 0.0 0.00 0.00 0.00 74 1013.0
20260509114152 54 120 0.0 0.0 0.00 0.00 0.00 72 1013.1
20260509113650 53 120 0.0 0.0 0.00 0.00 0.00 74 1013.0
20260509113147 54 76 0.0 0.0 0.00 0.00 0.00 77 1013.2
20260509112644 53 21 0.0 0.0 0.00 0.00 0.00 75 1013.2
20260509112141 53 167 0.0 0.0 0.00 0.00 0.00 72 1013.2
20260509111638 53 129 0.0 0.0 0.00 0.00 0.00 72 1013.0
20260509111134 53 129 0.0 0.0 0.00 0.00 0.00 73 1013.0
20260509110632 53 129 0.0 0.0 0.00 0.00 0.00 69 1013.2
20260509110129 53 129 0.0 0.0 0.00 0.00 0.00 69 1013.0
20260509105627 53 129 0.0 0.0 0.00 0.00 0.00 69 1012.9
20260509105124 52 126 0.0 0.0 0.00 0.00 0.00 70 1012.8
20260509104621 52 103 0.0 0.0 0.00 0.00 0.00 70 1013.0
20260509104117 52 106 0.0 0.0 0.00 0.00 0.00 71 1012.9
20260509103616 51 140 0.0 0.0 0.00 0.00 0.00 71 1012.9
20260509103113 51 168 0.0 0.0 0.00 0.00 0.00 71 1013.2
20260509102610 51 167 0.0 0.0 0.00 0.00 0.00 72 1013.2
20260509102107 51 338 0.0 0.0 0.00 0.00 0.00 71 1012.8
20260509101603 51 160 0.0 0.0 0.00 0.00 0.00 70 1012.9
20260509101100 51 161 0.0 0.0 0.00 0.00 0.00 70 1012.9
20260509100557 51 137 0.0 0.0 0.00 0.00 0.00 70 1013.0
20260509100055 51 120 0.0 0.0 0.00 0.00 0.00 70 1013.0
20260509095551 51 120 0.0 0.0 0.00 0.00 0.00 71 1012.9
20260509095049 51 119 0.0 0.0 0.00 0.00 0.00 69 1013.0
20260509094545 51 119 0.0 0.0 0.00 0.00 0.00 69 1013.1
20260509094043 50 120 0.0 0.0 0.00 0.00 0.00 69 1012.8
20260509093541 50 120 0.0 0.0 0.00 0.00 0.00 69 1012.8
20260509093038 51 116 0.0 0.0 0.00 0.00 0.00 69 1013.1
20260509092535 50 123 0.0 0.0 0.00 0.00 0.00 68 1013.1
20260509092034 50 139 0.0 0.0 0.00 0.00 0.00 70 1013.0
20260509091531 50 139 0.0 0.0 0.00 0.00 0.00 70 1013.1
20260509091028 50 53 0.0 0.0 0.00 0.00 0.00 70 1013.1
20260509090525 51 157 0.0 0.0 0.00 0.00 0.00 68 1013.1
20260509090023 50 154 0.0 0.0 0.00 0.00 0.00 68 1013.1
20260509085519 50 129 0.0 0.0 0.00 0.00 0.00 68 1013.1
20260509085015 50 125 0.0 0.0 0.00 0.00 0.00 68 1013.2
20260509084513 50 125 0.0 0.0 0.00 0.00 0.00 68 1013.2
20260509084010 51 171 0.0 0.0 0.00 0.00 0.00 67 1013.2
20260509083507 51 162 0.0 0.0 0.00 0.00 0.00 65 1013.3
20260509083003 51 161 0.0 0.0 0.00 0.00 0.00 65 1013.3
20260509082501 51 159 0.0 0.0 0.00 0.00 0.00 65 1013.4
20260509081958 52 159 0.0 0.0 0.00 0.00 0.00 64 1013.2
20260509081455 52 159 0.0 0.0 0.00 0.00 0.00 64 1013.2
20260509080952 52 158 0.0 0.0 0.00 0.00 0.00 63 1013.4
20260509080450 52 159 0.0 0.0 0.00 0.00 0.00 64 1013.5
20260509075948 51 175 0.0 0.0 0.00 0.00 0.00 65 1013.2
20260509075445 51 163 0.0 0.0 0.00 0.00 0.00 65 1013.7
20260509074943 51 165 0.0 0.0 0.00 0.00 0.00 65 1013.7
20260509074440 51 140 0.0 0.0 0.00 0.00 0.00 65 1013.4
20260509073936 51 126 0.0 0.0 0.00 0.00 0.00 64 1013.4
20260509073433 51 157 0.0 0.0 0.00 0.00 0.00 64 1013.5
20260509072929 50 169 0.0 0.0 0.00 0.00 0.00 64 1013.9
20260509072426 51 175 0.0 0.0 0.00 0.00 0.00 63 1014.0
20260509071922 51 155 0.0 0.0 0.00 0.00 0.00 63 1013.8
20260509071419 51 140 0.0 0.0 0.00 0.00 0.00 62 1014.0
20260509070917 50 183 0.0 0.0 0.00 0.00 0.00 63 1014.0
20260509070414 50 182 0.0 0.0 0.00 0.00 0.00 64 1013.8
20260509065909 51 183 0.0 0.0 0.00 0.00 0.00 63 1013.9
20260509065406 51 186 0.0 0.0 0.00 0.00 0.00 61 1014.1
20260509064902 51 183 0.0 0.0 0.00 0.00 0.00 61 1014.1
20260509064359 51 171 0.0 0.0 0.00 0.00 0.00 65 1014.1